Precipitable_Water
0.52 0.51 0.51 0.50 0.50 0.50 0.52 0.52 0.52 0.52 0.51 0.50 0.50 0.49 0.49 0.49 0.48 0.47 0.46 0.46 0.45 0.45 0.44 0.44 0.44 0.43 0.43 0.44 0.44 0.44 0.41 0.34 0.28 0.28 0.31 0.31 0.46 0.46 0.44 0.43 0.36 0.35 0.29 0.31 0.33 0.30 0.27 0.31 0.32 0.37 0.33 0.28 0.23 0.20 0.28 0.26 0.26 0.24 0.17 0.15 0.15 0.16 0.13 0.15 0.17 0.16 0.18 0.21 0.23 0.24 0.24 0.22 0.20 0.23 0.25 0.25 0.28 0.29 0.55 0.66 0.95 1.00 1.03 1.14 1.19 1.43 1.52 1.51
0.53 0.52 0.51 0.51 0.51 0.50 0.50 0.50 0.51 0.51 0.52 0.51 0.50 0.50 0.49 0.48 0.47 0.47 0.46 0.46 0.45 0.44 0.44 0.43 0.43 0.43 0.43 0.43 0.44 0.42 0.38 0.33 0.28 0.29 0.27 0.44 0.49 0.45 0.41 0.42 0.39 0.35 0.31 0.30 0.30 0.31 0.29 0.29 0.32 0.33 0.30 0.23 0.24 0.19 0.25 0.25 0.24 0.22 0.19 0.15 0.15 0.16 0.18 0.19 0.19 0.19 0.18 0.20 0.23 0.24 0.23 0.22 0.19 0.20 0.24 0.17 0.20 0.38 0.44 0.56 0.88 0.95 1.06 1.07 1.20 1.38 1.44 1.42
0.53 0.52 0.51 0.51 0.50 0.50 0.49 0.50 0.50 0.51 0.51 0.51 0.50 0.50 0.48 0.48 0.47 0.46 0.46 0.45 0.45 0.44 0.43 0.43 0.43 0.43 0.43 0.43 0.42 0.40 0.37 0.29 0.32 0.23 0.25 0.43 0.45 0.41 0.36 0.36 0.37 0.34 0.27 0.27 0.36 0.38 0.34 0.34 0.33 0.31 0.27 0.24 0.21 0.19 0.21 0.27 0.21 0.21 0.20 0.15 0.16 0.20 0.22 0.22 0.22 0.20 0.20 0.21 0.21 0.21 0.22 0.21 0.21 0.19 0.23 0.19 0.20 0.26 0.41 0.57 0.85 0.86 0.95 1.08 1.25 1.35 1.33 1.32
0.54 0.53 0.51 0.52 0.50 0.49 0.49 0.49 0.50 0.50 0.50 0.50 0.49 0.49 0.49 0.48 0.47 0.46 0.45 0.45 0.44 0.43 0.42 0.41 0.42 0.43 0.42 0.42 0.43 0.39 0.35 0.29 0.19 0.20 0.44 0.49 0.40 0.39 0.33 0.37 0.36 0.31 0.27 0.35 0.45 0.43 0.40 0.39 0.34 0.31 0.27 0.24 0.23 0.20 0.21 0.24 0.18 0.20 0.18 0.17 0.18 0.21 0.21 0.22 0.23 0.22 0.22 0.21 0.20 0.20 0.21 0.19 0.18 0.21 0.23 0.21 0.21 0.19 0.19 0.29 0.65 0.88 0.99 1.04 1.15 1.24 1.26 1.24
0.53 0.51 0.50 0.52 0.52 0.50 0.49 0.48 0.48 0.48 0.48 0.49 0.49 0.49 0.49 0.48 0.47 0.45 0.44 0.43 0.42 0.41 0.40 0.40 0.40 0.41 0.41 0.42 0.37 0.38 0.31 0.16 0.41 0.49 0.60 0.43 0.33 0.29 0.34 0.37 0.33 0.30 0.27 0.38 0.45 0.44 0.42 0.40 0.35 0.30 0.26 0.24 0.26 0.20 0.21 0.23 0.21 0.22 0.18 0.17 0.21 0.23 0.21 0.24 0.24 0.23 0.23 0.22 0.20 0.19 0.16 0.16 0.19 0.21 0.20 0.21 0.21 0.23 0.41 0.84 0.75 0.93 1.03 1.04 1.15 1.19 1.23 1.19
0.53 0.52 0.51 0.50 0.51 0.50 0.49 0.48 0.47 0.47 0.47 0.48 0.48 0.48 0.48 0.48 0.46 0.45 0.43 0.43 0.40 0.39 0.39 0.39 0.39 0.39 0.40 0.39 0.35 0.31 0.22 0.21 0.62 0.57 0.57 0.45 0.34 0.32 0.37 0.37 0.29 0.31 0.32 0.41 0.43 0.41 0.39 0.41 0.37 0.27 0.23 0.24 0.23 0.21 0.19 0.20 0.23 0.17 0.20 0.19 0.20 0.21 0.22 0.23 0.25 0.25 0.23 0.21 0.19 0.17 0.17 0.18 0.19 0.19 0.20 0.19 0.17 0.24 0.67 0.74 0.94 1.02 1.08 1.13 1.22 1.23 1.20 1.16
0.54 0.53 0.51 0.50 0.50 0.50 0.49 0.48 0.47 0.47 0.47 0.46 0.47 0.47 0.47 0.47 0.46 0.44 0.43 0.41 0.40 0.38 0.38 0.38 0.39 0.38 0.38 0.35 0.30 0.31 0.21 0.27 0.33 0.58 0.55 0.48 0.45 0.44 0.43 0.35 0.28 0.31 0.39 0.38 0.42 0.39 0.36 0.36 0.34 0.30 0.25 0.22 0.24 0.21 0.20 0.19 0.21 0.20 0.18 0.20 0.19 0.20 0.21 0.23 0.22 0.21 0.20 0.18 0.16 0.17 0.18 0.17 0.19 0.17 0.18 0.20 0.22 0.24 0.66 0.65 0.76 0.97 1.10 1.18 1.16 1.16 1.21 1.20
0.55 0.54 0.51 0.49 0.49 0.49 0.49 0.47 0.46 0.46 0.47 0.47 0.46 0.47 0.46 0.46 0.45 0.44 0.43 0.40 0.39 0.38 0.37 0.37 0.38 0.38 0.38 0.26 0.21 0.24 0.29 0.20 0.39 0.55 0.44 0.52 0.49 0.48 0.43 0.34 0.26 0.31 0.36 0.36 0.40 0.37 0.35 0.31 0.28 0.31 0.27 0.22 0.21 0.21 0.21 0.20 0.19 0.17 0.16 0.20 0.21 0.22 0.23 0.22 0.22 0.22 0.20 0.18 0.18 0.18 0.17 0.17 0.18 0.17 0.18 0.19 0.22 0.26 0.84 0.63 0.74 0.81 0.93 1.00 1.08 1.14 1.21 1.23
0.54 0.53 0.52 0.49 0.48 0.48 0.48 0.47 0.46 0.46 0.46 0.46 0.46 0.46 0.46 0.45 0.44 0.43 0.41 0.40 0.39 0.38 0.37 0.37 0.37 0.38 0.40 0.30 0.20 0.21 0.25 0.44 0.67 0.53 0.40 0.36 0.40 0.41 0.39 0.30 0.27 0.31 0.33 0.40 0.40 0.38 0.32 0.28 0.29 0.27 0.23 0.20 0.23 0.20 0.21 0.19 0.16 0.16 0.16 0.18 0.18 0.18 0.20 0.22 0.22 0.21 0.19 0.18 0.19 0.18 0.17 0.17 0.17 0.18 0.16 0.17 0.20 0.23 0.81 0.67 0.86 0.82 0.82 0.90 1.06 1.13 1.18 1.20
0.55 0.53 0.51 0.50 0.48 0.47 0.47 0.48 0.46 0.46 0.46 0.46 0.46 0.45 0.45 0.44 0.43 0.42 0.41 0.39 0.38 0.37 0.37 0.36 0.37 0.37 0.30 0.25 0.25 0.19 0.39 0.55 0.61 0.52 0.43 0.31 0.28 0.29 0.33 0.33 0.30 0.30 0.33 0.37 0.35 0.32 0.27 0.28 0.27 0.28 0.27 0.22 0.21 0.19 0.22 0.20 0.18 0.24 0.19 0.18 0.17 0.18 0.19 0.19 0.19 0.20 0.20 0.19 0.20 0.18 0.17 0.17 0.17 0.17 0.14 0.17 0.19 0.23 0.65 0.70 0.77 0.79 0.79 0.89 1.02 1.09 1.14 1.16
0.55 0.52 0.51 0.51 0.49 0.48 0.47 0.48 0.47 0.46 0.46 0.45 0.45 0.44 0.44 0.43 0.42 0.40 0.40 0.38 0.36 0.36 0.36 0.36 0.38 0.35 0.24 0.31 0.23 0.24 0.38 0.44 0.64 0.55 0.43 0.29 0.27 0.24 0.28 0.33 0.31 0.36 0.40 0.37 0.33 0.31 0.31 0.29 0.28 0.28 0.25 0.21 0.21 0.20 0.20 0.19 0.20 0.20 0.22 0.23 0.23 0.22 0.20 0.19 0.20 0.21 0.21 0.20 0.20 0.18 0.16 0.17 0.17 0.16 0.15 0.18 0.23 0.36 0.67 0.69 0.78 0.72 0.74 0.87 0.98 1.02 1.12 1.12
0.54 0.51 0.50 0.50 0.49 0.48 0.49 0.48 0.47 0.46 0.45 0.45 0.44 0.44 0.42 0.42 0.42 0.40 0.38 0.37 0.35 0.35 0.36 0.38 0.39 0.33 0.28 0.23 0.18 0.24 0.28 0.35 0.49 0.50 0.45 0.29 0.26 0.29 0.37 0.38 0.35 0.45 0.36 0.31 0.29 0.29 0.30 0.28 0.27 0.23 0.20 0.21 0.17 0.18 0.18 0.19 0.18 0.19 0.19 0.18 0.20 0.20 0.18 0.18 0.17 0.18 0.20 0.18 0.17 0.17 0.15 0.13 0.13 0.13 0.15 0.19 0.21 0.34 0.41 0.61 0.82 0.74 0.74 0.83 0.95 1.07 1.13 1.13
0.54 0.52 0.50 0.50 0.49 0.48 0.47 0.48 0.46 0.45 0.44 0.44 0.44 0.43 0.43 0.42 0.42 0.41 0.38 0.35 0.35 0.37 0.40 0.41 0.40 0.35 0.27 0.19 0.20 0.23 0.31 0.28 0.38 0.55 0.45 0.36 0.34 0.39 0.45 0.40 0.38 0.40 0.37 0.33 0.29 0.29 0.29 0.27 0.25 0.21 0.22 0.21 0.20 0.16 0.24 0.20 0.18 0.19 0.19 0.17 0.16 0.15 0.14 0.16 0.17 0.17 0.17 0.18 0.17 0.16 0.11 0.12 0.13 0.13 0.14 0.17 0.20 0.39 0.44 0.56 0.61 0.84 0.84 0.88 0.92 1.00 1.11 1.18
0.54 0.52 0.51 0.50 0.49 0.47 0.47 0.46 0.45 0.44 0.43 0.43 0.43 0.43 0.43 0.42 0.40 0.39 0.37 0.35 0.38 0.41 0.42 0.47 0.41 0.34 0.32 0.21 0.36 0.30 0.25 0.31 0.42 0.42 0.42 0.39 0.37 0.39 0.45 0.42 0.39 0.41 0.44 0.41 0.41 0.35 0.30 0.30 0.28 0.24 0.24 0.20 0.20 0.31 0.23 0.22 0.21 0.18 0.19 0.19 0.14 0.13 0.12 0.16 0.16 0.16 0.15 0.17 0.17 0.17 0.11 0.11 0.12 0.13 0.15 0.16 0.17 0.31 0.38 0.50 0.76 0.86 0.95 0.99 1.01 1.07 1.09 1.16
0.53 0.52 0.51 0.50 0.49 0.48 0.47 0.46 0.45 0.43 0.44 0.42 0.43 0.43 0.41 0.40 0.38 0.38 0.37 0.37 0.41 0.46 0.46 0.45 0.39 0.33 0.24 0.18 0.29 0.34 0.29 0.34 0.35 0.33 0.40 0.38 0.39 0.40 0.39 0.40 0.37 0.40 0.44 0.44 0.43 0.39 0.36 0.32 0.28 0.23 0.20 0.22 0.24 0.22 0.23 0.20 0.21 0.18 0.15 0.14 0.14 0.11 0.12 0.15 0.16 0.16 0.14 0.17 0.17 0.15 0.11 0.10 0.10 0.12 0.14 0.16 0.18 0.28 0.35 0.60 0.62 0.68 0.72 0.97 1.04 1.11 1.13 1.16
0.54 0.52 0.51 0.50 0.49 0.48 0.47 0.46 0.44 0.44 0.43 0.42 0.41 0.41 0.39 0.38 0.38 0.37 0.40 0.42 0.42 0.45 0.44 0.34 0.29 0.27 0.28 0.26 0.41 0.37 0.27 0.18 0.24 0.32 0.39 0.39 0.40 0.39 0.37 0.37 0.39 0.39 0.41 0.37 0.38 0.34 0.31 0.28 0.22 0.21 0.21 0.23 0.21 0.20 0.21 0.20 0.17 0.19 0.13 0.14 0.14 0.14 0.13 0.14 0.15 0.18 0.19 0.16 0.16 0.15 0.12 0.11 0.11 0.14 0.13 0.15 0.17 0.26 0.32 0.56 0.66 0.65 0.67 0.79 0.85 0.92 0.98 1.12
0.53 0.51 0.50 0.49 0.48 0.47 0.46 0.45 0.44 0.43 0.43 0.41 0.40 0.38 0.38 0.38 0.40 0.40 0.45 0.45 0.43 0.43 0.40 0.43 0.45 0.42 0.17 0.39 0.43 0.32 0.24 0.21 0.23 0.27 0.37 0.41 0.42 0.42 0.36 0.34 0.32 0.34 0.36 0.36 0.32 0.28 0.26 0.20 0.21 0.20 0.21 0.20 0.20 0.17 0.17 0.16 0.16 0.16 0.16 0.12 0.16 0.16 0.17 0.14 0.19 0.21 0.21 0.17 0.17 0.18 0.13 0.10 0.12 0.15 0.12 0.14 0.20 0.29 0.31 0.54 0.54 0.60 0.67 0.82 0.91 0.93 0.98 1.17
0.53 0.51 0.49 0.48 0.47 0.47 0.45 0.44 0.44 0.43 0.42 0.40 0.39 0.34 0.36 0.42 0.44 0.43 0.39 0.45 0.49 0.40 0.38 0.45 0.49 0.39 0.25 0.30 0.24 0.24 0.31 0.25 0.19 0.23 0.30 0.36 0.41 0.41 0.36 0.30 0.32 0.34 0.33 0.31 0.32 0.23 0.23 0.17 0.18 0.15 0.17 0.17 0.20 0.18 0.13 0.13 0.14 0.17 0.18 0.16 0.15 0.16 0.18 0.14 0.16 0.20 0.19 0.18 0.17 0.15 0.14 0.12 0.13 0.13 0.19 0.25 0.29 0.29 0.30 0.53 0.49 0.52 0.61 0.75 0.91 0.97 1.01 1.00
0.52 0.51 0.49 0.48 0.47 0.45 0.44 0.43 0.43 0.43 0.41 0.39 0.36 0.40 0.44 0.51 0.53 0.42 0.40 0.45 0.36 0.34 0.25 0.27 0.28 0.16 0.22 0.33 0.28 0.35 0.36 0.34 0.32 0.23 0.24 0.27 0.31 0.36 0.37 0.36 0.35 0.32 0.27 0.24 0.26 0.19 0.22 0.17 0.18 0.15 0.15 0.16 0.17 0.19 0.16 0.16 0.19 0.20 0.19 0.19 0.20 0.17 0.18 0.18 0.19 0.20 0.20 0.19 0.18 0.14 0.12 0.14 0.15 0.13 0.15 0.21 0.25 0.29 0.32 0.57 0.56 0.50 0.56 0.67 0.79 0.84 0.92 0.93
0.52 0.50 0.49 0.48 0.46 0.44 0.43 0.43 0.43 0.42 0.42 0.35 0.34 0.35 0.46 0.55 0.54 0.45 0.45 0.42 0.33 0.26 0.33 0.45 0.37 0.23 0.26 0.27 0.29 0.46 0.49 0.44 0.32 0.25 0.26 0.28 0.26 0.28 0.31 0.32 0.34 0.33 0.29 0.21 0.26 0.20 0.23 0.14 0.14 0.13 0.14 0.17 0.17 0.19 0.20 0.18 0.19 0.21 0.19 0.18 0.20 0.21 0.21 0.21 0.21 0.21 0.21 0.20 0.19 0.17 0.15 0.13 0.13 0.15 0.15 0.16 0.21 0.23 0.27 0.47 0.42 0.50 0.52 0.56 0.74 0.83 0.81 0.84
0.52 0.50 0.49 0.47 0.45 0.43 0.42 0.42 0.42 0.42 0.40 0.38 0.34 0.31 0.39 0.36 0.30 0.35 0.53 0.52 0.47 0.40 0.28 0.32 0.38 0.31 0.24 0.28 0.32 0.43 0.36 0.33 0.37 0.31 0.28 0.30 0.25 0.26 0.27 0.29 0.32 0.26 0.27 0.28 0.26 0.25 0.21 0.15 0.14 0.14 0.13 0.17 0.20 0.19 0.20 0.20 0.21 0.20 0.21 0.19 0.21 0.19 0.19 0.20 0.21 0.22 0.21 0.19 0.18 0.17 0.14 0.14 0.14 0.15 0.17 0.17 0.17 0.17 0.21 0.42 0.44 0.55 0.49 0.56 0.71 0.74 0.75 0.83
0.51 0.51 0.48 0.46 0.44 0.42 0.42 0.41 0.41 0.40 0.40 0.37 0.33 0.26 0.44 0.41 0.42 0.45 0.39 0.28 0.33 0.40 0.34 0.29 0.33 0.29 0.33 0.31 0.31 0.42 0.38 0.32 0.26 0.33 0.38 0.29 0.25 0.20 0.26 0.25 0.28 0.24 0.26 0.28 0.28 0.24 0.17 0.14 0.14 0.15 0.18 0.17 0.19 0.21 0.19 0.18 0.21 0.23 0.22 0.22 0.21 0.21 0.20 0.20 0.19 0.20 0.19 0.20 0.20 0.19 0.17 0.16 0.15 0.15 0.15 0.16 0.17 0.19 0.20 0.26 0.49 0.45 0.50 0.51 0.60 0.64 0.70 0.76
0.50 0.50 0.48 0.45 0.43 0.41 0.41 0.41 0.40 0.40 0.34 0.27 0.24 0.27 0.39 0.44 0.42 0.43 0.39 0.30 0.22 0.27 0.29 0.33 0.24 0.24 0.26 0.29 0.31 0.36 0.27 0.26 0.23 0.29 0.34 0.27 0.25 0.21 0.29 0.22 0.25 0.26 0.27 0.25 0.23 0.21 0.18 0.15 0.15 0.15 0.18 0.18 0.17 0.19 0.22 0.22 0.21 0.22 0.24 0.21 0.21 0.20 0.17 0.15 0.18 0.19 0.21 0.20 0.20 0.22 0.18 0.17 0.17 0.17 0.16 0.16 0.16 0.17 0.21 0.22 0.38 0.52 0.49 0.44 0.54 0.62 0.67 0.66
0.49 0.49 0.46 0.45 0.43 0.40 0.41 0.40 0.38 0.33 0.29 0.24 0.24 0.34 0.53 0.38 0.39 0.41 0.37 0.27 0.24 0.32 0.26 0.27 0.30 0.25 0.21 0.22 0.26 0.28 0.21 0.22 0.26 0.29 0.38 0.28 0.23 0.24 0.28 0.26 0.23 0.24 0.25 0.24 0.23 0.23 0.21 0.20 0.21 0.18 0.17 0.18 0.17 0.19 0.23 0.28 0.25 0.25 0.24 0.22 0.19 0.17 0.16 0.16 0.20 0.21 0.21 0.23 0.24 0.23 0.20 0.16 0.17 0.18 0.19 0.18 0.18 0.17 0.18 0.21 0.20 0.27 0.35 0.50 0.59 0.57 0.59 0.62
0.48 0.47 0.45 0.45 0.42 0.42 0.39 0.39 0.34 0.34 0.37 0.34 0.35 0.40 0.37 0.35 0.32 0.44 0.31 0.28 0.26 0.19 0.33 0.30 0.28 0.28 0.26 0.26 0.27 0.22 0.21 0.20 0.22 0.33 0.41 0.31 0.24 0.24 0.23 0.30 0.24 0.23 0.24 0.26 0.24 0.23 0.24 0.28 0.31 0.22 0.19 0.17 0.19 0.18 0.22 0.27 0.24 0.23 0.23 0.19 0.19 0.19 0.19 0.19 0.20 0.21 0.19 0.21 0.25 0.22 0.16 0.14 0.15 0.15 0.15 0.18 0.20 0.18 0.17 0.18 0.18 0.23 0.28 0.31 0.53 0.54 0.65 0.69
0.48 0.46 0.45 0.44 0.43 0.41 0.41 0.47 0.45 0.43 0.42 0.37 0.45 0.44 0.41 0.44 0.46 0.42 0.37 0.28 0.22 0.30 0.28 0.24 0.27 0.21 0.30 0.24 0.28 0.24 0.23 0.16 0.18 0.23 0.41 0.35 0.32 0.26 0.23 0.26 0.25 0.22 0.22 0.25 0.25 0.25 0.23 0.28 0.26 0.21 0.20 0.18 0.20 0.22 0.27 0.26 0.20 0.18 0.19 0.21 0.18 0.18 0.21 0.21 0.20 0.21 0.16 0.15 0.21 0.22 0.16 0.13 0.17 0.16 0.16 0.17 0.18 0.18 0.19 0.19 0.18 0.22 0.25 0.26 0.46 0.52 0.63 0.68
0.47 0.45 0.44 0.44 0.42 0.42 0.30 0.39 0.45 0.41 0.36 0.38 0.43 0.41 0.40 0.47 0.57 0.42 0.33 0.21 0.14 0.31 0.28 0.30 0.20 0.28 0.27 0.29 0.25 0.23 0.13 0.14 0.18 0.17 0.27 0.39 0.29 0.32 0.24 0.21 0.26 0.24 0.27 0.27 0.24 0.23 0.26 0.24 0.25 0.26 0.23 0.23 0.24 0.22 0.24 0.25 0.20 0.15 0.20 0.23 0.23 0.22 0.20 0.18 0.19 0.20 0.19 0.20 0.21 0.19 0.18 0.15 0.14 0.17 0.21 0.21 0.19 0.18 0.19 0.19 0.21 0.23 0.26 0.26 0.29 0.60 0.56 0.62
0.47 0.46 0.45 0.44 0.43 0.42 0.33 0.40 0.35 0.34 0.41 0.53 0.54 0.44 0.42 0.46 0.50 0.47 0.31 0.21 0.15 0.35 0.27 0.28 0.25 0.40 0.29 0.29 0.27 0.17 0.17 0.23 0.16 0.14 0.16 0.36 0.31 0.30 0.27 0.25 0.23 0.22 0.23 0.23 0.17 0.24 0.26 0.22 0.25 0.23 0.25 0.24 0.23 0.23 0.22 0.21 0.20 0.19 0.19 0.17 0.21 0.21 0.20 0.18 0.17 0.20 0.21 0.18 0.14 0.15 0.17 0.14 0.14 0.16 0.21 0.21 0.18 0.18 0.19 0.19 0.21 0.24 0.26 0.28 0.27 0.38 0.51 0.60
0.46 0.46 0.45 0.44 0.42 0.43 0.46 0.40 0.32 0.34 0.47 0.51 0.47 0.32 0.45 0.48 0.40 0.37 0.31 0.19 0.29 0.31 0.44 0.30 0.40 0.32 0.34 0.32 0.24 0.19 0.21 0.22 0.17 0.18 0.14 0.27 0.31 0.31 0.24 0.27 0.29 0.26 0.22 0.21 0.19 0.24 0.27 0.25 0.24 0.26 0.28 0.24 0.24 0.23 0.21 0.20 0.18 0.20 0.21 0.23 0.20 0.18 0.21 0.22 0.22 0.20 0.17 0.15 0.12 0.14 0.17 0.13 0.14 0.21 0.23 0.21 0.18 0.18 0.21 0.23 0.25 0.40 0.35 0.31 0.27 0.29 0.54 0.61
0.46 0.46 0.45 0.44 0.40 0.45 0.49 0.45 0.34 0.30 0.44 0.46 0.41 0.43 0.42 0.40 0.38 0.22 0.25 0.16 0.32 0.26 0.33 0.35 0.31 0.25 0.29 0.25 0.24 0.22 0.21 0.23 0.23 0.20 0.16 0.19 0.26 0.29 0.30 0.32 0.27 0.27 0.23 0.21 0.20 0.25 0.28 0.33 0.32 0.27 0.27 0.28 0.25 0.21 0.21 0.21 0.21 0.23 0.21 0.20 0.20 0.20 0.21 0.21 0.19 0.18 0.17 0.13 0.12 0.15 0.17 0.17 0.14 0.17 0.20 0.22 0.28 0.35 0.28 0.31 0.52 0.49 0.46 0.42 0.46 0.44 0.66 0.60
0.46 0.46 0.46 0.45 0.35 0.44 0.45 0.33 0.48 0.53 0.47 0.43 0.39 0.43 0.43 0.39 0.29 0.22 0.17 0.20 0.26 0.30 0.33 0.31 0.27 0.29 0.25 0.23 0.21 0.24 0.24 0.26 0.23 0.21 0.15 0.19 0.23 0.24 0.26 0.27 0.28 0.25 0.26 0.24 0.21 0.21 0.28 0.31 0.30 0.30 0.29 0.29 0.27 0.22 0.23 0.25 0.26 0.23 0.20 0.19 0.20 0.20 0.20 0.17 0.16 0.17 0.12 0.11 0.14 0.16 0.17 0.18 0.13 0.16 0.20 0.34 0.31 0.36 0.34 0.39 0.44 0.42 0.43 0.49 0.47 0.49 0.58 0.66
0.47 0.46 0.47 0.44 0.43 0.46 0.33 0.41 0.52 0.56 0.50 0.50 0.39 0.35 0.36 0.22 0.24 0.23 0.19 0.30 0.20 0.26 0.25 0.26 0.28 0.27 0.25 0.25 0.25 0.25 0.22 0.24 0.26 0.20 0.16 0.17 0.19 0.17 0.19 0.19 0.21 0.17 0.19 0.21 0.21 0.23 0.22 0.24 0.29 0.30 0.33 0.30 0.26 0.21 0.22 0.23 0.24 0.22 0.20 0.19 0.15 0.14 0.14 0.13 0.14 0.12 0.12 0.11 0.15 0.17 0.18 0.16 0.17 0.20 0.37 0.42 0.43 0.42 0.45 0.45 0.46 0.47 0.47 0.52 0.53 0.48 0.58 0.58
0.47 0.47 0.47 0.45 0.44 0.37 0.37 0.53 0.56 0.50 0.49 0.41 0.36 0.37 0.28 0.26 0.15 0.20 0.28 0.28 0.22 0.27 0.26 0.27 0.28 0.25 0.25 0.24 0.24 0.27 0.27 0.21 0.26 0.23 0.21 0.20 0.18 0.17 0.17 0.16 0.23 0.19 0.17 0.21 0.23 0.22 0.21 0.25 0.26 0.27 0.29 0.28 0.26 0.19 0.17 0.19 0.21 0.21 0.18 0.18 0.15 0.12 0.12 0.11 0.14 0.16 0.16 0.18 0.21 0.19 0.23 0.20 0.23 0.42 0.50 0.52 0.56 0.56 0.53 0.54 0.53 0.55 0.56 0.59 0.63 0.70 0.82 0.83
0.48 0.49 0.41 0.41 0.42 0.40 0.38 0.47 0.52 0.49 0.40 0.36 0.34 0.30 0.32 0.23 0.20 0.23 0.26 0.26 0.26 0.28 0.27 0.24 0.25 0.25 0.22 0.20 0.22 0.23 0.24 0.24 0.26 0.25 0.22 0.18 0.16 0.15 0.15 0.14 0.22 0.22 0.18 0.25 0.22 0.22 0.19 0.19 0.21 0.22 0.23 0.28 0.21 0.21 0.21 0.20 0.22 0.22 0.23 0.20 0.17 0.14 0.13 0.12 0.13 0.14 0.17 0.20 0.27 0.30 0.21 0.18 0.19 0.40 0.49 0.53 0.55 0.59 0.61 0.61 0.61 0.60 0.63 0.65 0.65 0.69 0.71 0.82
0.46 0.45 0.46 0.45 0.42 0.41 0.41 0.46 0.49 0.46 0.39 0.35 0.29 0.29 0.21 0.20 0.28 0.23 0.21 0.25 0.26 0.27 0.26 0.27 0.24 0.23 0.21 0.21 0.23 0.25 0.27 0.23 0.25 0.27 0.23 0.20 0.17 0.16 0.16 0.15 0.17 0.22 0.22 0.19 0.24 0.26 0.24 0.24 0.28 0.29 0.29 0.29 0.23 0.21 0.23 0.23 0.23 0.26 0.26 0.22 0.17 0.15 0.18 0.14 0.20 0.20 0.21 0.22 0.21 0.24 0.22 0.32 0.35 0.51 0.58 0.55 0.54 0.56 0.61 0.62 0.68 0.65 0.68 0.65 0.61 0.66 0.67 0.68
0.45 0.51 0.56 0.43 0.40 0.41 0.42 0.42 0.46 0.44 0.37 0.31 0.28 0.24 0.21 0.22 0.22 0.28 0.25 0.25 0.24 0.22 0.22 0.23 0.23 0.19 0.19 0.19 0.22 0.24 0.31 0.26 0.26 0.26 0.25 0.21 0.20 0.17 0.19 0.19 0.16 0.18 0.20 0.17 0.24 0.22 0.26 0.25 0.31 0.31 0.33 0.30 0.29 0.25 0.21 0.24 0.17 0.21 0.21 0.17 0.16 0.19 0.18 0.17 0.18 0.22 0.22 0.22 0.20 0.25 0.26 0.32 0.45 0.51 0.55 0.55 0.50 0.53 0.56 0.62 0.65 0.67 0.65 0.66 0.68 0.66 0.70 0.72
0.41 0.54 0.49 0.50 0.48 0.52 0.45 0.42 0.42 0.38 0.34 0.35 0.28 0.22 0.26 0.24 0.26 0.26 0.26 0.25 0.25 0.22 0.21 0.17 0.18 0.16 0.17 0.18 0.20 0.22 0.27 0.29 0.30 0.26 0.23 0.23 0.19 0.18 0.18 0.20 0.21 0.18 0.20 0.23 0.23 0.26 0.25 0.26 0.31 0.29 0.29 0.33 0.32 0.29 0.25 0.22 0.22 0.23 0.19 0.20 0.22 0.21 0.19 0.18 0.16 0.20 0.18 0.16 0.18 0.22 0.21 0.34 0.33 0.34 0.56 0.54 0.51 0.50 0.52 0.58 0.69 0.71 0.69 0.67 0.73 0.73 0.72 0.74
0.41 0.53 0.64 0.57 0.57 0.55 0.48 0.42 0.39 0.34 0.29 0.32 0.26 0.27 0.28 0.25 0.25 0.25 0.26 0.25 0.25 0.24 0.18 0.14 0.20 0.18 0.17 0.19 0.20 0.22 0.24 0.24 0.27 0.28 0.25 0.25 0.21 0.24 0.20 0.21 0.24 0.20 0.20 0.24 0.24 0.27 0.27 0.23 0.29 0.30 0.30 0.33 0.33 0.30 0.26 0.24 0.23 0.20 0.24 0.33 0.21 0.18 0.14 0.17 0.17 0.16 0.18 0.18 0.19 0.21 0.22 0.26 0.29 0.36 0.44 0.47 0.51 0.56 0.59 0.64 0.65 0.68 0.70 0.71 0.74 0.74 0.74 0.77
0.48 0.58 0.54 0.64 0.57 0.52 0.49 0.42 0.34 0.28 0.24 0.22 0.25 0.24 0.25 0.32 0.26 0.25 0.24 0.25 0.24 0.19 0.15 0.17 0.17 0.19 0.19 0.19 0.22 0.23 0.24 0.22 0.27 0.27 0.24 0.25 0.22 0.31 0.24 0.23 0.24 0.25 0.24 0.25 0.23 0.29 0.31 0.23 0.25 0.31 0.28 0.32 0.31 0.27 0.22 0.22 0.23 0.22 0.24 0.26 0.28 0.24 0.22 0.18 0.18 0.18 0.20 0.18 0.19 0.19 0.21 0.32 0.44 0.46 0.53 0.50 0.57 0.61 0.63 0.64 0.69 0.74 0.75 0.79 0.78 0.76 0.77 0.77
0.42 0.45 0.54 0.58 0.47 0.49 0.49 0.38 0.27 0.28 0.20 0.17 0.23 0.23 0.26 0.23 0.23 0.22 0.22 0.21 0.18 0.14 0.13 0.14 0.17 0.21 0.20 0.22 0.24 0.24 0.26 0.27 0.28 0.30 0.27 0.28 0.24 0.37 0.27 0.26 0.25 0.27 0.27 0.26 0.26 0.27 0.27 0.32 0.24 0.28 0.30 0.29 0.25 0.26 0.22 0.23 0.21 0.19 0.18 0.19 0.23 0.23 0.27 0.27 0.29 0.23 0.21 0.19 0.19 0.21 0.21 0.33 0.45 0.59 0.60 0.61 0.60 0.59 0.61 0.63 0.72 0.78 0.79 0.81 0.84 0.85 0.89 0.89
0.54 0.54 0.58 0.62 0.50 0.51 0.42 0.30 0.23 0.20 0.18 0.22 0.27 0.28 0.21 0.19 0.20 0.20 0.21 0.21 0.18 0.20 0.21 0.21 0.23 0.20 0.21 0.22 0.23 0.27 0.28 0.28 0.28 0.29 0.32 0.32 0.33 0.28 0.34 0.33 0.29 0.28 0.30 0.29 0.26 0.26 0.23 0.27 0.23 0.28 0.28 0.25 0.24 0.28 0.27 0.23 0.23 0.22 0.19 0.17 0.19 0.20 0.20 0.20 0.20 0.28 0.25 0.24 0.23 0.21 0.20 0.32 0.52 0.64 0.64 0.67 0.71 0.67 0.69 0.71 0.72 0.77 0.79 0.80 0.83 0.89 0.92 0.96
0.52 0.40 0.55 0.66 0.53 0.42 0.29 0.22 0.22 0.24 0.23 0.22 0.21 0.25 0.26 0.25 0.27 0.25 0.27 0.23 0.13 0.17 0.21 0.20 0.23 0.24 0.25 0.25 0.28 0.27 0.28 0.28 0.29 0.28 0.32 0.33 0.39 0.36 0.47 0.42 0.41 0.36 0.31 0.27 0.26 0.28 0.25 0.26 0.27 0.24 0.26 0.27 0.25 0.27 0.28 0.26 0.23 0.23 0.23 0.20 0.20 0.20 0.22 0.22 0.19 0.25 0.34 0.30 0.30 0.29 0.23 0.33 0.56 0.67 0.69 0.69 0.74 0.74 0.75 0.76 0.73 0.75 0.76 0.75 0.81 0.87 0.92 0.95
0.52 0.53 0.79 0.71 0.53 0.35 0.30 0.25 0.27 0.28 0.24 0.28 0.34 0.28 0.26 0.23 0.21 0.21 0.20 0.23 0.17 0.14 0.21 0.20 0.18 0.18 0.20 0.22 0.26 0.27 0.29 0.29 0.29 0.29 0.30 0.36 0.44 0.42 0.49 0.49 0.50 0.42 0.40 0.34 0.30 0.29 0.29 0.25 0.26 0.26 0.29 0.31 0.33 0.34 0.31 0.27 0.24 0.22 0.23 0.24 0.23 0.20 0.20 0.20 0.22 0.29 0.26 0.27 0.25 0.25 0.21 0.28 0.53 0.74 0.75 0.70 0.77 0.77 0.79 0.76 0.71 0.73 0.75 0.77 0.78 0.84 0.85 0.86
0.55 0.61 0.63 0.72 0.56 0.52 0.42 0.29 0.26 0.28 0.30 0.30 0.32 0.32 0.31 0.28 0.22 0.23 0.17 0.26 0.21 0.23 0.16 0.18 0.20 0.19 0.20 0.23 0.20 0.23 0.30 0.26 0.32 0.33 0.32 0.39 0.37 0.52 0.49 0.48 0.49 0.45 0.46 0.51 0.38 0.41 0.28 0.29 0.25 0.24 0.23 0.25 0.27 0.31 0.33 0.30 0.25 0.23 0.24 0.26 0.26 0.27 0.27 0.31 0.30 0.31 0.25 0.28 0.29 0.26 0.23 0.34 0.62 0.71 0.73 0.74 0.73 0.73 0.75 0.77 0.74 0.69 0.71 0.75 0.78 0.80 0.82 0.83
0.64 0.71 0.65 0.61 0.61 0.62 0.44 0.50 0.42 0.34 0.31 0.31 0.33 0.29 0.33 0.29 0.28 0.28 0.29 0.28 0.25 0.27 0.29 0.27 0.26 0.27 0.20 0.21 0.22 0.23 0.27 0.27 0.29 0.35 0.34 0.40 0.43 0.52 0.54 0.50 0.53 0.50 0.55 0.57 0.52 0.54 0.36 0.34 0.27 0.21 0.21 0.19 0.19 0.21 0.23 0.28 0.29 0.30 0.28 0.31 0.33 0.31 0.35 0.35 0.27 0.29 0.23 0.29 0.32 0.29 0.32 0.50 0.61 0.66 0.67 0.69 0.67 0.65 0.69 0.71 0.72 0.71 0.70 0.71 0.73 0.76 0.80 0.81
0.56 0.41 0.55 0.56 0.54 0.55 0.56 0.58 0.48 0.42 0.33 0.35 0.32 0.34 0.33 0.32 0.32 0.28 0.27 0.30 0.31 0.29 0.28 0.30 0.29 0.30 0.27 0.25 0.21 0.20 0.19 0.25 0.25 0.29 0.32 0.41 0.41 0.48 0.56 0.59 0.53 0.52 0.53 0.56 0.56 0.47 0.39 0.40 0.38 0.32 0.30 0.30 0.36 0.36 0.40 0.37 0.36 0.30 0.35 0.34 0.43 0.44 0.45 0.43 0.39 0.31 0.26 0.31 0.31 0.33 0.32 0.42 0.45 0.52 0.59 0.60 0.60 0.59 0.61 0.63 0.62 0.66 0.69 0.73 0.74 0.76 0.77 0.78
0.65 0.49 0.46 0.41 0.46 0.48 0.43 0.48 0.43 0.40 0.34 0.37 0.29 0.30 0.29 0.27 0.32 0.33 0.33 0.23 0.28 0.28 0.28 0.26 0.27 0.24 0.24 0.22 0.20 0.20 0.22 0.19 0.22 0.23 0.26 0.37 0.43 0.46 0.57 0.54 0.60 0.59 0.58 0.55 0.55 0.49 0.40 0.34 0.39 0.36 0.39 0.44 0.45 0.43 0.43 0.38 0.38 0.43 0.38 0.38 0.41 0.42 0.46 0.41 0.35 0.34 0.44 0.40 0.36 0.43 0.44 0.37 0.43 0.49 0.55 0.57 0.60 0.60 0.62 0.61 0.64 0.67 0.67 0.69 0.72 0.74 0.75 0.76
0.47 0.49 0.51 0.53 0.36 0.30 0.34 0.36 0.38 0.36 0.40 0.35 0.34 0.32 0.29 0.28 0.26 0.29 0.34 0.27 0.30 0.31 0.24 0.25 0.24 0.25 0.24 0.20 0.20 0.17 0.20 0.21 0.25 0.24 0.27 0.32 0.40 0.43 0.42 0.54 0.64 0.58 0.57 0.56 0.61 0.50 0.47 0.41 0.46 0.42 0.42 0.43 0.44 0.44 0.46 0.44 0.44 0.49 0.44 0.40 0.39 0.45 0.46 0.40 0.42 0.44 0.43 0.37 0.34 0.45 0.49 0.44 0.47 0.51 0.55 0.57 0.59 0.60 0.61 0.61 0.65 0.69 0.70 0.71 0.71 0.70 0.71 0.71
0.65 0.59 0.56 0.55 0.40 0.39 0.39 0.36 0.36 0.36 0.32 0.31 0.31 0.30 0.28 0.28 0.28 0.28 0.30 0.26 0.24 0.28 0.25 0.22 0.20 0.21 0.21 0.23 0.22 0.21 0.21 0.14 0.20 0.28 0.32 0.37 0.42 0.40 0.40 0.46 0.56 0.59 0.56 0.56 0.58 0.57 0.48 0.42 0.44 0.43 0.37 0.38 0.36 0.37 0.44 0.44 0.48 0.47 0.44 0.43 0.44 0.46 0.46 0.48 0.46 0.47 0.47 0.45 0.46 0.48 0.49 0.45 0.48 0.49 0.54 0.58 0.62 0.61 0.62 0.64 0.66 0.66 0.67 0.68 0.70 0.71 0.70 0.70
0.53 0.47 0.44 0.42 0.45 0.41 0.40 0.37 0.36 0.33 0.32 0.32 0.26 0.29 0.31 0.31 0.31 0.32 0.31 0.29 0.25 0.27 0.26 0.23 0.22 0.24 0.24 0.25 0.22 0.19 0.24 0.28 0.28 0.26 0.37 0.37 0.40 0.43 0.41 0.47 0.51 0.54 0.56 0.52 0.51 0.55 0.45 0.40 0.45 0.42 0.37 0.37 0.39 0.46 0.51 0.49 0.46 0.39 0.44 0.45 0.46 0.51 0.51 0.50 0.49 0.50 0.51 0.50 0.50 0.46 0.43 0.40 0.48 0.54 0.55 0.59 0.61 0.61 0.61 0.59 0.60 0.63 0.65 0.65 0.67 0.68 0.68 0.68
0.67 0.64 0.60 0.41 0.35 0.37 0.35 0.33 0.28 0.29 0.30 0.28 0.26 0.29 0.29 0.31 0.31 0.34 0.35 0.30 0.32 0.30 0.31 0.27 0.27 0.28 0.28 0.25 0.28 0.28 0.33 0.35 0.32 0.31 0.35 0.34 0.31 0.43 0.39 0.43 0.49 0.47 0.49 0.50 0.52 0.51 0.44 0.39 0.45 0.42 0.33 0.32 0.38 0.40 0.42 0.50 0.49 0.42 0.40 0.41 0.44 0.46 0.44 0.45 0.44 0.49 0.45 0.43 0.46 0.46 0.40 0.38 0.49 0.53 0.55 0.56 0.58 0.57 0.55 0.56 0.58 0.60 0.61 0.64 0.66 0.67 0.67 0.69
0.69 0.67 0.56 0.46 0.33 0.33 0.29 0.28 0.28 0.28 0.27 0.30 0.30 0.31 0.27 0.29 0.31 0.32 0.29 0.34 0.35 0.34 0.35 0.32 0.32 0.30 0.31 0.31 0.29 0.33 0.36 0.33 0.33 0.36 0.37 0.37 0.40 0.40 0.44 0.46 0.46 0.42 0.44 0.44 0.48 0.40 0.43 0.40 0.36 0.36 0.31 0.32 0.40 0.41 0.40 0.44 0.43 0.37 0.37 0.40 0.42 0.45 0.49 0.49 0.49 0.53 0.52 0.51 0.42 0.37 0.38 0.48 0.51 0.54 0.50 0.52 0.54 0.55 0.57 0.58 0.58 0.61 0.62 0.64 0.65 0.66 0.68 0.69
Wind_Speed
26 27 26 26 26 26 25 25 25 25 24 24 24 24 23 23 23 23 23 23 23 22 22 22 22 22 21 21 21 21 21 21 21 21 22 21 19 18 17 17 18 17 17 17 17 17 17 18 18 18 17 16 16 16 16 17 16 15 15 15 14 13 13 11 9 11 10 8 10 12 12 12 11 12 12 12 13 14 15 15 12 11 12 11 11 12 14 15
26 26 26 26 26 25 25 25 25 25 24 24 24 23 23 23 23 23 23 22 22 22 22 22 22 21 21 21 21 21 21 21 22 23 23 21 19 19 18 18 18 17 17 17 18 18 18 17 17 17 17 16 16 16 16 16 16 16 15 14 15 13 12 12 11 12 11 11 13 13 12 12 12 13 13 13 13 13 14 14 12 11 11 9 11 13 14 15
26 25 25 25 25 25 25 25 24 24 24 24 23 23 23 23 23 22 22 22 22 22 22 21 21 21 20 20 20 20 20 21 22 23 22 20 20 19 18 18 19 18 18 18 17 18 18 17 17 17 16 16 16 16 16 16 16 16 16 15 15 14 12 13 14 14 13 13 14 13 12 12 13 14 14 13 13 13 14 15 15 13 11 10 12 14 14 16
25 25 25 25 24 24 24 24 24 24 23 23 23 23 23 22 22 22 22 22 21 21 21 21 21 20 20 20 20 19 19 20 20 19 18 18 19 18 18 18 18 19 18 18 17 18 18 17 17 17 16 16 16 16 16 15 15 15 17 16 16 14 14 14 14 15 15 15 15 15 15 14 15 14 14 13 13 14 15 16 15 13 12 12 13 14 15 16
24 24 24 24 24 23 23 23 23 23 23 23 22 22 22 22 22 21 21 21 21 21 20 20 20 20 20 19 19 19 18 17 16 15 15 16 17 17 18 18 18 19 19 18 17 18 19 17 17 17 17 17 16 16 16 17 16 15 16 18 18 17 16 14 14 15 16 17 18 19 19 18 16 16 15 15 15 14 12 9 11 12 13 12 14 15 16 17
24 24 24 24 23 23 22 22 22 22 22 22 22 22 22 21 21 21 21 21 20 20 20 20 20 19 19 19 19 18 17 16 14 14 15 15 16 17 17 17 18 18 18 18 17 18 18 18 18 18 17 17 17 17 17 17 17 17 16 18 19 19 17 15 14 15 15 17 19 20 20 19 18 17 17 16 16 13 9 6 9 12 13 13 14 15 17 17
24 24 24 23 23 22 22 21 21 21 21 21 21 21 21 21 20 20 20 20 20 19 19 19 19 19 18 18 19 19 19 19 16 15 15 15 15 16 16 17 18 18 18 18 18 18 18 18 18 18 17 16 17 17 17 18 18 18 17 17 18 18 18 18 16 16 15 17 18 20 20 20 19 18 17 16 15 13 9 10 11 12 12 13 14 15 17 18
24 24 24 23 22 22 21 21 20 20 20 20 20 20 20 20 20 20 19 19 19 19 18 18 18 18 17 17 17 18 20 20 17 16 15 15 14 14 16 16 18 18 18 18 18 18 18 18 18 17 16 16 16 16 17 17 17 18 18 18 18 17 17 18 18 18 18 18 18 19 20 21 20 19 18 16 15 13 10 10 12 13 13 13 15 16 18 19
24 24 23 23 22 21 21 20 20 20 20 20 20 20 19 19 19 19 19 19 19 18 18 18 18 17 17 17 17 17 17 16 16 16 16 15 14 14 15 16 18 18 18 18 18 18 17 17 18 17 16 16 15 16 16 16 16 17 18 18 18 18 17 17 18 19 19 18 18 19 20 20 20 19 19 18 17 14 11 10 11 12 13 14 15 16 17 18
24 24 23 22 22 21 21 20 19 19 19 19 19 19 19 19 19 18 18 18 18 18 18 18 18 17 17 17 17 17 15 15 15 16 16 16 15 15 15 16 17 18 17 18 18 18 17 16 17 17 17 16 15 15 16 16 14 13 15 17 18 19 19 18 18 18 18 18 19 19 19 20 19 18 17 17 18 15 11 11 13 13 14 15 15 16 17 18
24 23 23 22 21 21 20 20 19 19 18 18 18 18 18 18 18 18 18 18 17 18 17 18 17 17 17 17 18 17 15 15 15 15 16 16 16 16 16 16 17 18 17 17 18 18 18 17 16 16 15 15 15 14 15 17 16 14 14 16 17 18 19 20 19 18 18 18 19 19 19 19 19 18 17 17 18 15 13 12 14 14 14 15 16 16 17 17
23 23 23 22 21 20 20 19 19 18 18 18 18 18 18 18 18 17 17 17 17 17 17 17 17 17 17 18 20 19 16 16 16 15 16 16 16 16 16 16 17 18 17 16 17 18 18 17 16 16 14 13 14 13 14 16 17 17 15 16 17 18 19 20 20 19 18 17 18 18 18 19 19 19 18 18 18 16 15 14 13 13 13 14 16 17 18 18
23 23 22 22 21 20 20 19 18 18 18 17 17 17 18 18 17 17 17 17 17 16 16 16 16 17 17 17 18 19 18 17 16 15 16 16 17 17 17 17 17 17 16 16 16 17 18 17 16 18 15 13 13 11 11 14 15 16 16 16 17 17 18 19 19 19 17 17 16 15 16 16 17 19 18 18 19 16 16 15 13 12 13 14 16 18 19 19
23 23 22 22 21 20 19 19 18 18 17 17 17 17 18 17 17 17 17 17 16 16 16 16 16 16 17 18 17 17 17 16 16 16 16 17 17 17 17 17 17 17 15 15 15 15 17 17 16 17 16 15 14 11 12 13 13 14 15 15 15 15 16 18 18 16 15 15 15 13 14 15 17 19 19 19 20 18 14 13 12 11 12 13 15 17 20 20
22 22 22 21 21 20 19 19 18 18 18 17 17 17 17 17 17 17 17 16 16 16 16 16 17 16 16 18 18 17 17 17 17 17 17 18 18 17 17 17 17 16 16 15 15 14 15 16 16 16 16 16 16 13 13 13 13 13 14 14 14 14 14 14 15 14 12 13 14 13 14 14 15 17 19 20 19 18 14 11 11 12 12 14 15 17 19 20
22 22 22 21 21 20 19 19 18 18 18 17 17 17 17 17 17 16 16 16 16 16 16 16 17 17 16 16 16 16 18 18 18 18 17 18 18 17 17 17 17 16 16 16 15 14 15 16 16 17 16 16 16 15 13 13 14 13 13 13 13 13 11 10 12 13 12 12 12 13 14 13 13 13 16 20 18 17 14 11 12 13 14 15 16 17 18 18
21 22 21 21 20 20 19 19 18 18 18 17 17 17 16 17 16 16 16 16 16 16 16 16 16 18 18 16 15 17 18 19 19 18 18 18 18 17 17 16 16 16 16 16 15 15 15 16 16 16 16 16 15 15 15 14 14 13 13 13 13 14 12 9 11 14 14 12 12 14 13 14 15 12 10 15 16 16 15 12 12 14 15 17 18 19 19 18
21 21 21 21 20 20 19 19 18 18 18 17 17 17 17 17 17 16 16 16 15 15 17 18 18 17 17 19 19 18 19 18 18 19 18 18 18 17 17 16 16 16 16 15 16 16 15 16 16 15 16 17 16 16 15 15 14 13 13 12 13 14 13 9 9 10 11 11 12 14 14 14 15 13 9 12 14 16 16 13 14 15 16 17 18 19 19 19
21 21 21 20 20 20 19 18 18 18 18 17 16 17 17 17 16 16 17 17 16 16 15 17 20 17 14 18 20 17 17 17 17 19 19 18 18 18 17 16 16 16 16 15 15 16 15 15 16 16 17 17 17 17 17 16 15 13 13 13 13 12 13 12 9 9 10 11 12 14 15 14 15 15 12 12 13 16 16 15 15 17 17 17 18 18 18 18
21 21 20 20 20 19 19 18 18 18 17 16 16 16 16 16 15 15 16 18 19 19 18 17 21 20 15 15 18 16 16 17 17 19 20 19 19 18 18 17 17 17 17 16 15 16 16 16 17 17 18 18 18 18 18 18 18 16 15 14 14 13 14 14 11 10 11 12 13 13 15 16 16 17 16 15 15 16 17 16 16 17 17 18 18 18 18 18
20 20 20 20 19 19 19 18 18 18 17 16 16 16 16 14 13 13 14 18 21 23 23 20 20 22 18 15 17 17 16 17 17 18 19 19 19 19 18 18 18 17 17 18 16 16 17 17 17 18 18 18 18 19 19 20 19 18 16 14 14 14 13 14 13 12 11 11 13 14 16 17 18 19 19 19 19 17 17 16 16 17 17 18 18 18 18 17
19 20 19 19 19 19 18 18 18 17 17 17 17 17 16 14 13 14 14 16 19 21 23 23 22 22 21 18 17 17 17 18 18 19 19 20 20 19 18 19 18 17 17 18 16 15 16 17 18 18 18 18 19 19 19 20 20 17 15 15 14 13 12 14 14 12 11 12 13 15 16 17 18 19 20 21 21 19 18 17 17 18 18 18 18 17 18 18
18 19 18 18 18 18 18 18 18 17 17 17 18 18 16 14 13 14 15 16 17 19 21 22 22 22 22 21 18 17 18 18 18 20 20 20 20 19 18 18 18 18 17 18 17 16 15 16 18 18 18 18 19 19 17 17 18 16 16 16 15 15 14 13 13 12 13 14 13 13 16 17 18 18 19 20 21 21 21 19 18 18 19 19 18 18 18 18
17 17 18 18 17 17 18 17 17 17 18 18 18 18 16 13 13 13 14 15 16 17 19 20 21 22 22 22 20 20 19 19 18 20 21 20 20 20 19 18 18 18 18 18 19 18 16 16 17 18 18 19 19 19 17 15 16 17 18 18 16 17 17 15 14 14 15 15 14 15 17 18 18 18 17 18 19 21 23 23 20 20 21 20 20 20 20 19
16 16 17 17 17 17 17 17 16 16 17 18 18 17 15 13 13 12 13 14 14 15 17 18 19 19 21 20 20 20 20 20 19 19 20 21 20 19 18 18 18 18 18 19 19 19 18 17 16 17 18 20 19 17 17 17 17 17 19 20 19 19 19 18 16 16 16 16 14 14 16 16 17 19 19 18 18 20 22 23 22 20 21 21 20 21 21 21
15 16 16 16 16 16 16 16 16 15 17 17 16 14 13 12 12 12 12 12 12 13 14 16 16 16 18 19 19 19 19 21 21 20 20 21 21 19 18 17 17 18 18 18 18 17 18 18 16 15 15 16 17 16 17 18 17 17 17 18 20 20 20 20 18 17 16 15 14 14 16 16 16 17 18 18 19 20 20 21 21 20 20 20 19 21 22 21
14 15 16 16 16 15 16 16 15 15 15 15 13 12 12 12 11 11 11 11 12 13 13 14 15 15 16 18 18 18 16 17 21 23 22 21 21 20 19 18 17 18 17 17 17 16 17 19 18 17 16 15 16 17 17 17 17 16 16 16 17 19 21 20 19 18 17 16 17 17 17 17 16 15 15 16 17 18 18 18 19 19 19 20 19 21 22 22
14 15 15 15 16 16 17 17 16 16 14 12 12 12 12 11 11 11 11 11 11 13 13 13 13 14 15 17 19 20 15 12 17 22 23 22 21 21 20 19 18 18 18 18 17 16 16 19 19 17 16 16 16 17 16 17 17 16 16 17 17 17 18 18 17 18 18 18 19 18 17 16 15 14 15 16 16 16 16 15 16 17 17 18 19 20 22 21
13 14 15 15 15 16 17 17 18 17 14 12 12 12 12 11 11 11 11 11 11 12 12 12 13 14 15 15 18 20 17 13 14 18 22 23 22 21 20 19 19 18 19 19 18 16 15 17 17 16 16 16 16 17 17 18 17 16 17 18 17 14 14 15 15 16 17 18 18 17 16 15 15 14 14 14 15 14 15 14 13 12 12 13 15 16 20 22
13 14 14 14 15 15 15 17 18 17 15 14 13 13 13 12 12 12 11 11 11 12 12 12 14 15 16 16 17 19 18 16 14 16 21 22 21 22 20 19 20 18 18 20 20 18 15 15 17 17 17 17 17 17 17 18 16 15 16 17 15 14 14 15 16 15 15 17 18 17 17 16 15 14 14 14 12 10 11 12 11 10 10 10 10 10 14 18
13 13 14 14 15 14 15 15 15 15 15 14 13 13 13 12 12 12 11 10 11 12 12 12 14 16 17 17 16 18 18 17 16 16 19 19 20 22 20 19 19 18 17 18 19 20 18 16 16 16 16 15 16 16 16 16 14 14 14 14 13 13 15 15 15 15 15 16 16 17 17 18 16 14 13 12 11 10 10 11 11 12 12 11 12 11 12 15
13 13 14 15 15 15 16 15 13 13 13 14 13 13 13 13 13 13 11 9 10 12 12 13 15 15 17 17 16 18 18 17 17 18 18 18 19 21 21 19 18 17 17 17 17 18 19 19 17 16 16 16 16 15 16 16 15 14 14 13 13 13 12 13 13 13 15 15 15 16 16 16 14 11 9 8 9 9 11 11 12 13 12 11 13 14 14 17
13 14 14 15 15 16 17 16 14 13 13 14 14 14 13 13 13 14 12 9 9 10 12 14 15 15 17 16 16 18 17 17 18 18 19 19 19 20 22 21 20 18 17 16 17 17 17 19 20 17 15 17 18 16 15 16 15 15 15 14 14 13 12 12 12 12 13 13 14 15 15 14 13 9 7 8 8 9 10 11 12 13 13 12 12 13 13 14
13 14 14 15 15 16 17 16 15 14 14 14 14 14 14 13 12 13 13 11 9 9 11 12 12 13 16 16 15 16 16 17 19 18 18 20 19 19 21 22 23 20 17 16 17 16 16 17 18 17 15 16 19 18 16 14 14 15 15 15 15 14 13 12 11 12 12 12 12 13 13 12 12 10 8 9 9 10 10 11 12 13 13 13 12 12 14 15
12 13 13 14 14 15 17 17 16 15 14 14 15 14 14 13 11 12 12 9 9 11 13 13 13 13 15 16 16 16 16 16 18 19 18 19 19 19 20 21 23 21 18 16 15 16 17 16 16 17 16 16 17 18 18 16 14 14 15 16 17 16 14 12 12 12 11 10 11 12 11 9 9 10 9 10 10 9 10 11 13 13 13 13 12 13 15 16
10 10 12 13 13 14 16 17 16 15 15 14 15 14 14 14 10 9 10 9 8 10 11 12 14 14 14 15 16 16 16 15 16 18 18 19 20 20 19 20 22 22 20 17 14 14 16 15 14 16 17 17 17 16 18 17 14 12 14 16 16 16 15 13 13 13 12 11 12 12 11 8 8 9 8 9 10 9 10 12 12 13 12 12 12 12 13 14
9 10 11 12 13 13 15 16 16 15 15 14 14 14 13 13 12 9 10 11 10 10 10 11 12 14 14 14 15 15 15 14 15 16 16 17 18 20 20 19 20 23 22 19 16 14 15 14 14 16 17 17 17 16 17 18 16 13 13 14 14 15 16 14 13 12 13 13 12 13 13 10 9 10 8 8 9 9 10 11 11 10 10 9 9 10 11 12
10 10 11 12 12 14 15 15 15 15 14 14 14 14 13 11 11 11 10 11 11 11 12 11 11 13 14 13 14 16 16 15 15 16 15 15 15 17 19 19 19 21 23 21 17 14 14 14 15 17 16 15 17 17 16 17 19 17 14 12 13 13 14 15 14 13 12 13 12 13 14 10 8 9 9 8 8 8 8 9 9 7 6 6 7 7 9 9
10 10 10 11 12 14 15 15 15 14 14 14 13 13 14 12 11 11 11 13 13 11 12 12 11 12 13 12 12 14 15 15 15 15 14 14 14 13 15 16 17 19 21 22 19 15 14 14 14 15 16 14 15 16 15 15 17 18 16 14 13 13 12 13 13 13 13 12 11 12 12 9 9 9 8 8 8 8 8 8 7 5 4 4 5 5 6 6
11 10 9 11 12 13 15 15 15 14 14 14 13 12 14 13 12 11 11 14 15 13 12 13 11 11 12 12 12 12 13 13 14 15 14 13 13 14 14 13 15 17 19 20 20 17 15 14 13 13 15 16 15 15 16 15 15 17 18 17 15 14 13 13 12 12 13 13 11 11 11 9 9 10 8 8 9 8 8 7 6 5 4 4 4 5 5 4
12 10 9 11 12 13 14 14 14 14 14 13 13 13 13 12 10 10 11 13 14 14 13 13 13 11 11 12 11 11 12 13 13 14 14 13 13 14 14 13 13 14 16 19 19 18 16 15 15 14 14 16 16 16 16 16 16 16 17 18 17 16 15 14 13 12 13 13 12 11 10 9 9 9 8 7 7 7 7 6 6 5 5 5 5 6 5 4
12 10 10 12 13 14 14 13 12 13 13 12 12 11 10 11 11 10 10 12 14 15 14 14 14 13 12 12 11 11 12 13 12 13 14 14 13 13 13 13 13 12 13 16 18 17 16 15 16 16 16 16 15 14 16 17 17 16 16 17 18 17 17 16 13 12 12 13 12 10 9 10 9 8 8 7 5 5 5 5 5 5 5 4 5 6 6 6
11 9 10 12 13 14 13 11 11 13 13 11 11 11 9 10 13 11 10 12 13 14 14 14 15 14 14 14 13 12 12 12 12 12 12 13 13 13 13 13 13 12 12 14 15 15 15 16 16 15 15 16 15 12 14 17 17 16 16 16 16 17 17 17 14 12 13 13 12 10 10 11 10 8 7 6 3 2 2 3 4 5 4 4 5 6 6 6
10 8 10 13 14 13 12 11 11 12 12 10 10 12 10 10 12 11 10 11 12 12 13 13 14 14 14 14 14 14 13 12 12 13 12 12 12 13 15 16 15 14 12 13 13 13 14 16 16 15 14 15 15 13 14 15 14 15 15 16 17 16 14 14 13 12 14 14 11 10 9 10 9 8 6 5 3 3 3 3 4 5 5 5 5 6 6 6
10 9 10 12 14 13 11 10 9 10 11 10 10 11 11 10 11 11 10 10 11 11 11 12 13 13 13 14 14 15 15 14 13 13 12 11 11 12 14 15 16 15 14 14 14 13 14 14 14 15 14 14 13 12 12 12 12 13 13 13 14 13 11 12 13 13 14 13 11 11 11 10 9 6 5 5 5 5 5 5 5 5 5 5 6 6 6 5
10 10 10 11 13 13 12 11 11 9 9 10 10 11 12 10 10 11 11 12 12 11 11 12 12 12 13 14 14 15 16 16 15 14 13 11 11 12 12 12 16 17 15 14 15 15 14 14 14 14 13 12 12 11 11 12 12 12 11 10 9 10 9 10 11 11 12 11 10 12 12 10 8 6 5 5 5 5 5 5 5 5 5 5 6 6 6 6
9 9 10 10 11 12 12 12 12 9 7 8 9 9 11 10 9 10 11 12 12 11 12 13 13 12 13 13 14 14 15 16 16 15 14 12 12 12 10 9 13 17 16 15 16 15 15 15 14 14 13 12 12 11 11 12 11 10 10 9 9 9 10 10 10 10 11 11 10 11 12 10 9 8 7 7 6 5 6 5 5 5 5 6 6 5 5 5
10 8 9 10 9 10 11 11 12 10 8 9 8 8 9 10 10 9 9 11 12 11 11 12 13 13 13 12 13 14 15 15 15 14 14 12 11 11 11 9 10 13 15 15 14 15 15 15 13 13 14 13 11 12 11 11 10 8 8 9 9 9 9 10 10 10 12 12 12 12 10 9 8 8 8 7 7 6 6 5 5 5 6 6 6 5 5 6
9 8 8 9 8 8 8 9 10 9 9 9 8 8 9 10 10 9 9 10 11 10 10 11 12 13 12 12 12 13 14 15 14 13 12 12 11 11 12 11 9 10 12 13 14 15 15 14 13 13 15 14 12 12 12 11 11 9 7 7 8 9 9 9 9 10 11 11 10 10 9 8 8 8 7 7 7 6 6 6 5 5 6 6 6 6 6 6
10 8 8 8 8 7 7 8 8 8 8 8 8 8 8 9 9 9 9 9 10 10 10 10 10 11 11 10 11 11 12 13 14 13 12 12 13 12 12 13 11 10 10 12 14 15 15 14 13 13 14 14 14 14 12 10 11 9 6 6 7 8 8 7 7 9 11 10 9 10 10 9 9 9 7 7 6 6 6 6 6 6 6 6 6 7 7 7
10 9 8 8 8 7 7 8 8 7 7 8 8 8 8 8 8 8 8 8 9 9 10 9 10 10 10 10 10 9 9 11 13 13 13 13 14 14 13 13 12 11 10 12 13 14 14 14 13 13 14 14 14 15 14 12 11 9 7 7 8 9 9 9 8 9 10 11 11 11 11 10 10 9 8 7 6 6 6 6 6 7 7 6 6 7 7 7
9 9 9 8 7 7 8 8 8 8 7 7 7 7 8 8 7 7 7 8 9 10 10 9 9 10 10 11 11 10 9 10 11 13 13 13 14 14 14 14 13 12 11 11 12 13 14 14 14 13 14 13 13 14 14 14 13 11 10 11 10 10 10 10 9 9 10 11 11 11 10 10 10 9 8 8 7 7 6 6 7 7 7 6 6 7 8 8
Wind_Direction
254 252 252 251 250 249 249 249 249 249 250 250 250 251 251 252 252 252 253 253 253 254 255 255 256 256 257 258 260 261 262 260 257 254 249 246 243 244 245 240 240 241 237 236 235 233 233 235 236 235 235 236 236 237 238 235 236 238 238 241 241 238 237 248 260 249 243 250 266 275 277 272 270 279 279 276 267 253 257 256 251 256 252 251 243 222 216 216
253 251 251 250 249 248 248 247 248 249 249 249 249 250 250 251 251 251 252 252 252 253 253 254 255 255 257 257 259 260 260 259 257 254 249 244 241 242 242 240 240 237 233 231 231 230 231 232 232 231 232 234 234 235 237 232 233 237 235 237 236 236 245 257 261 252 252 259 268 276 273 268 270 278 277 278 270 254 258 253 245 252 250 249 236 220 216 215
252 250 250 249 248 248 247 247 247 247 248 248 248 249 249 249 250 250 250 251 251 252 252 253 253 254 256 256 258 260 259 259 257 253 246 239 237 238 239 238 236 233 230 229 230 229 231 230 228 229 231 233 234 234 234 230 231 235 235 236 232 240 260 262 259 258 259 259 265 271 270 269 271 276 274 276 276 266 265 254 241 244 243 240 231 222 218 217
251 250 249 248 248 247 246 246 246 246 247 247 248 248 248 248 249 249 249 250 250 250 250 251 252 253 254 255 257 258 258 258 253 246 239 233 233 235 237 236 232 230 228 230 233 230 230 230 227 228 231 234 234 232 232 230 231 233 235 236 234 248 267 263 260 260 259 259 263 263 266 271 272 277 275 276 276 269 274 262 239 236 241 236 233 227 222 220
250 249 249 248 247 246 246 245 245 245 246 246 247 247 247 247 247 248 248 248 249 249 249 249 250 252 253 254 254 255 254 251 244 235 231 230 232 235 236 233 228 226 225 229 235 233 230 229 229 228 232 236 235 233 234 233 233 236 238 238 241 257 268 265 262 261 259 260 261 261 263 270 273 275 271 271 272 270 280 263 223 228 241 238 233 228 223 223
248 248 247 247 246 246 245 245 245 244 245 245 246 246 246 246 246 247 247 247 248 247 248 248 249 250 252 253 251 250 243 240 240 229 228 231 232 234 234 229 225 223 222 227 234 234 230 230 230 229 232 237 236 235 236 235 235 239 243 241 244 255 260 259 263 262 262 262 261 261 263 268 272 271 268 266 268 271 267 230 216 231 238 236 232 228 226 224
248 247 246 245 245 245 245 244 244 244 244 244 245 245 245 245 245 246 246 246 246 247 247 247 249 250 252 252 248 242 236 242 244 229 229 232 231 234 230 225 222 219 220 226 232 231 229 230 231 230 232 236 238 238 236 236 237 240 245 246 247 253 255 256 262 262 264 266 263 262 262 265 266 266 266 264 266 267 249 228 230 235 235 235 231 227 226 224
248 247 245 244 244 244 244 243 243 243 243 243 244 244 244 244 244 245 245 245 245 246 246 246 248 249 250 249 244 240 238 241 237 226 228 229 229 230 223 221 219 217 221 227 230 227 227 230 230 230 232 234 239 239 237 238 239 240 245 248 250 256 257 258 261 262 264 265 263 263 261 261 261 262 264 264 267 261 240 232 236 237 239 238 232 227 225 224
247 247 244 243 243 243 243 242 242 242 242 242 243 243 243 244 243 244 243 244 244 245 245 245 246 247 246 243 242 241 238 234 226 224 227 226 226 224 219 218 216 217 222 227 229 226 225 229 230 229 233 238 245 245 239 237 240 242 245 248 250 255 258 258 259 260 262 262 262 262 261 260 259 259 260 260 261 252 232 233 240 241 242 241 236 227 224 223
246 245 243 242 241 241 241 241 241 241 241 241 241 242 242 242 242 242 243 243 243 244 244 244 244 244 242 240 238 236 233 230 227 225 225 224 223 219 218 218 214 217 223 225 226 225 224 228 230 232 239 243 247 247 239 236 241 246 248 250 253 256 258 259 260 260 261 262 262 261 262 261 257 256 256 256 253 242 227 234 241 245 245 243 237 227 224 223
245 243 242 241 241 240 240 240 240 240 239 240 240 240 240 240 240 241 241 242 243 243 243 242 242 241 239 238 236 233 231 230 228 224 222 221 217 215 217 216 213 217 223 224 224 224 225 230 233 234 239 239 241 245 240 238 244 250 253 256 258 259 259 259 260 260 260 261 261 261 262 260 256 254 254 254 249 235 228 235 239 245 247 241 234 227 227 226
244 242 241 240 240 239 239 238 238 238 238 239 238 239 239 239 239 240 241 241 242 241 241 240 239 237 237 238 235 232 232 232 228 223 219 217 215 215 216 215 216 219 224 226 226 225 227 233 235 232 235 236 237 244 244 241 244 249 254 259 261 261 260 257 256 256 256 259 260 259 260 259 254 252 253 252 247 238 237 240 240 245 246 240 234 230 230 229
242 240 239 239 238 238 238 237 237 237 237 238 238 239 239 240 240 240 241 241 240 239 238 238 235 234 235 236 234 230 230 231 227 222 218 216 215 216 218 218 219 222 225 228 229 228 227 232 232 230 235 236 234 244 248 243 244 249 252 258 262 264 262 256 251 250 252 256 255 255 259 260 254 248 248 250 245 241 243 245 245 246 248 244 233 229 230 229
241 238 238 239 238 237 237 237 236 236 236 237 239 240 241 241 241 241 242 241 239 238 237 235 232 231 231 234 235 229 226 228 224 222 219 216 216 218 219 220 221 224 225 228 232 230 227 230 231 231 233 234 238 251 251 244 246 250 252 256 259 264 266 258 244 238 247 252 245 250 262 265 262 250 243 247 244 238 242 244 241 246 256 251 235 234 235 231
240 237 237 238 237 237 236 236 235 235 236 238 240 241 242 242 242 242 241 240 239 238 235 231 228 228 231 235 235 226 224 226 224 223 220 217 217 218 219 220 222 226 226 227 230 231 229 229 228 229 231 233 240 250 248 244 245 248 252 254 252 258 270 258 231 226 247 250 239 248 265 267 265 256 244 243 238 232 239 237 229 241 252 245 235 239 239 231
239 236 236 237 237 236 236 235 235 235 236 238 240 241 242 242 242 241 240 238 238 236 231 229 228 228 233 235 229 222 222 226 224 221 219 217 217 217 218 219 221 225 226 227 229 229 228 227 227 229 231 234 236 240 244 245 244 242 246 253 249 249 264 252 221 229 247 246 241 247 263 266 261 268 253 235 228 231 240 233 224 233 238 236 234 235 237 235
238 235 235 236 236 235 235 234 234 235 236 238 240 241 240 240 240 239 238 237 236 233 228 231 233 230 234 234 228 225 223 223 221 218 218 217 216 216 216 219 221 223 224 226 228 229 226 225 227 228 231 234 233 235 241 244 243 237 238 250 253 250 258 250 228 238 244 244 250 248 258 265 259 276 262 222 222 237 244 237 231 234 235 237 235 233 238 243
237 235 235 236 236 235 234 234 234 234 236 238 239 239 239 240 238 236 235 233 231 232 232 236 234 231 236 233 230 229 223 220 219 216 216 216 216 215 216 219 220 220 222 225 226 227 225 224 227 229 231 233 233 233 235 238 238 234 234 243 254 255 255 249 229 232 238 245 257 253 256 261 254 265 256 222 231 247 250 242 237 239 240 241 238 238 243 245
236 234 235 236 235 234 233 233 233 233 235 237 237 237 236 236 235 233 233 230 228 229 233 230 223 229 239 229 226 226 217 215 216 215 215 214 215 216 216 219 219 217 221 224 223 223 224 225 228 231 232 231 231 231 232 237 237 236 242 246 251 253 247 245 236 233 247 257 262 260 258 258 255 257 251 237 241 250 251 243 243 246 244 245 243 241 246 246
235 234 235 235 235 234 232 232 232 233 234 234 234 233 229 229 231 232 231 230 230 233 238 230 219 228 238 225 219 215 208 212 216 214 214 213 214 216 215 216 217 218 222 224 222 221 224 228 229 230 231 230 230 232 235 239 240 249 262 259 251 248 245 244 236 236 252 262 266 266 264 261 259 257 254 250 249 250 248 242 247 251 247 247 244 241 244 245
235 233 234 235 234 233 230 230 230 231 232 230 230 228 227 231 234 235 235 235 234 235 240 237 225 227 231 225 217 211 211 216 217 215 213 212 213 215 215 215 218 220 224 225 223 223 225 229 231 230 231 232 232 234 237 241 246 257 266 259 249 248 250 249 243 241 246 258 269 270 268 264 260 258 259 258 255 253 248 242 245 249 247 246 243 242 243 245
234 232 233 233 233 232 230 229 229 230 230 227 226 226 230 238 239 242 245 245 242 237 236 235 231 228 226 226 219 214 217 217 217 216 211 210 212 215 214 214 219 220 221 223 222 221 225 231 233 232 232 234 236 236 236 241 248 257 257 250 250 252 253 251 248 246 248 260 271 271 270 267 262 260 258 257 256 255 251 242 239 244 245 243 241 240 241 244
233 231 231 232 232 232 229 229 229 229 227 224 224 226 233 242 242 245 247 248 249 243 235 230 228 227 224 223 220 217 220 218 218 214 208 209 212 213 213 212 219 220 218 221 220 221 226 231 232 233 233 234 236 237 238 242 245 248 247 244 249 252 254 254 246 244 253 268 274 273 274 270 267 265 259 256 254 254 255 249 239 240 243 242 240 238 238 239
231 229 230 230 232 231 230 230 229 226 223 221 225 230 237 243 243 248 249 247 248 241 233 226 224 224 222 222 220 220 222 222 221 212 206 210 210 212 215 214 217 221 220 220 222 226 229 231 231 230 232 233 234 235 237 242 243 243 242 244 249 250 253 255 252 252 259 269 272 271 274 270 265 265 261 259 254 250 253 253 248 245 247 245 238 236 237 236
229 228 229 229 230 230 230 227 222 220 219 221 227 230 234 239 239 246 248 244 244 235 227 222 220 222 220 218 217 219 222 223 222 213 207 211 211 211 216 217 218 222 222 222 225 229 232 238 236 229 229 229 231 234 233 237 244 246 243 243 249 254 257 257 259 263 260 261 262 260 267 270 263 260 258 258 256 252 250 251 252 250 249 246 237 235 237 234
227 226 228 228 229 230 226 218 214 219 221 222 225 225 229 235 236 243 242 239 239 224 213 212 213 215 212 211 213 215 221 224 221 215 210 212 213 213 216 218 219 223 225 224 228 231 233 240 237 231 233 227 227 236 235 236 244 248 245 243 246 251 258 259 260 264 261 262 265 259 264 273 268 261 258 255 254 253 251 249 250 250 251 249 237 231 233 234
226 226 227 227 228 227 220 216 218 221 221 219 220 223 228 231 233 237 233 234 233 213 202 205 208 211 209 209 209 209 218 223 218 216 214 212 213 216 218 219 219 223 226 227 230 230 230 235 231 229 236 232 230 237 236 235 241 245 246 246 246 247 252 254 254 257 260 266 269 264 265 271 270 266 264 262 257 252 250 246 245 247 250 250 242 231 231 235
227 227 228 227 228 225 220 221 223 222 221 220 221 224 226 227 228 227 226 230 222 205 202 204 206 209 208 209 208 208 217 220 212 214 214 211 212 215 219 222 222 222 224 228 232 228 225 232 231 224 230 235 235 238 237 235 240 245 244 246 253 254 254 256 255 255 257 261 264 262 261 264 266 265 263 264 261 252 248 247 247 245 245 249 248 235 230 235
229 229 229 228 229 226 222 222 223 222 224 226 225 224 224 224 220 218 225 227 211 203 207 206 207 208 206 207 208 211 218 220 215 211 208 210 212 215 220 224 226 226 224 228 234 231 225 230 234 229 231 238 237 238 238 236 240 245 244 249 259 262 260 260 259 255 254 255 258 258 256 259 263 261 259 258 259 258 250 246 249 250 248 253 256 242 230 234
232 231 231 230 226 223 222 221 222 223 224 226 226 224 222 218 214 214 219 219 212 208 208 208 211 209 206 207 209 213 217 219 218 209 204 209 212 216 222 224 227 232 229 227 231 235 232 229 234 235 234 238 239 238 239 238 241 243 245 252 257 255 253 257 258 256 256 255 256 256 253 257 260 259 260 255 253 260 250 240 244 253 259 261 266 258 232 230
234 233 232 229 223 222 222 218 219 221 221 222 222 219 216 211 212 215 211 216 219 209 204 209 211 207 206 210 211 212 216 218 216 208 204 209 212 215 221 223 224 231 233 229 228 232 236 233 232 235 235 237 239 239 238 239 240 240 244 249 252 250 248 250 251 247 251 256 257 256 251 251 256 260 263 252 242 247 246 244 248 254 263 262 260 262 241 232
236 236 234 231 226 224 221 216 216 219 218 217 215 211 209 209 214 217 213 218 219 211 214 212 207 207 208 212 214 209 213 218 213 210 209 212 216 216 219 221 219 223 229 230 226 226 232 234 231 232 235 236 237 237 236 237 236 237 240 241 245 249 245 244 245 242 247 253 254 256 253 250 252 260 263 249 240 245 246 250 254 256 264 264 260 262 251 241
238 238 236 232 227 222 220 218 218 218 214 212 210 207 208 212 215 215 216 219 211 212 222 211 201 208 209 211 217 210 212 218 211 212 215 214 218 219 219 221 220 220 225 227 227 225 228 234 231 228 231 232 232 233 234 234 232 233 235 234 237 243 241 240 241 243 249 252 252 255 253 249 248 252 255 248 248 254 254 258 261 260 263 263 263 265 257 251
240 238 233 228 224 220 217 216 215 213 210 208 206 205 209 217 216 212 216 221 212 210 220 211 202 211 213 218 223 212 212 219 212 212 217 215 219 221 220 221 221 222 225 228 230 227 227 233 232 229 229 228 229 232 235 235 232 232 235 236 236 238 240 241 241 244 251 257 261 259 253 247 245 244 247 250 254 259 261 265 265 264 265 262 262 263 260 260
238 232 226 220 218 216 212 211 209 206 205 203 203 205 210 215 215 214 217 221 218 216 218 219 218 222 220 223 228 218 215 220 214 213 219 218 220 222 220 220 221 220 222 227 229 227 230 235 232 229 229 227 227 231 234 236 236 233 233 235 236 237 239 242 246 250 257 261 259 254 252 248 242 242 248 254 258 260 263 268 269 268 268 265 264 264 261 261
229 219 212 208 209 207 204 204 202 200 201 201 204 210 212 212 212 215 220 224 226 221 218 219 222 226 223 221 225 221 215 217 216 216 221 221 221 222 220 220 219 219 220 223 224 223 229 236 231 224 227 230 229 229 230 233 236 234 231 234 236 236 237 241 246 248 251 255 251 246 246 239 233 242 254 257 261 264 267 271 273 272 271 268 265 266 264 262
216 208 206 205 204 200 196 196 195 195 200 201 207 213 213 215 219 222 227 231 230 226 227 228 221 222 223 219 220 216 211 214 219 220 222 221 221 221 220 221 218 218 220 223 225 224 227 235 233 226 227 229 228 227 229 232 234 234 233 235 234 233 235 238 242 242 242 246 248 244 242 237 238 246 254 261 267 271 273 275 274 271 271 270 266 267 267 265
208 208 209 204 197 193 191 191 192 195 199 203 213 218 217 222 227 229 233 234 232 229 231 233 226 220 220 220 217 212 213 216 217 220 223 219 218 218 219 221 218 217 219 221 224 226 226 233 234 229 228 226 224 226 230 230 231 233 236 236 232 230 232 232 234 240 242 243 245 244 243 248 257 255 253 258 265 268 273 278 275 269 268 267 267 273 276 274
203 205 203 195 190 189 189 190 193 198 202 207 216 218 220 229 234 234 235 231 231 233 230 233 236 226 220 225 225 214 214 217 214 218 222 218 218 220 221 220 218 217 217 217 220 222 223 231 234 230 226 223 222 226 230 230 228 230 236 237 234 232 233 232 233 238 241 244 248 247 245 250 263 265 260 257 259 263 269 272 269 264 261 260 267 275 278 280
200 201 197 190 190 189 188 190 197 202 204 210 217 219 222 232 236 233 233 230 230 233 232 234 236 225 217 225 230 219 215 216 214 217 219 218 220 220 221 222 221 219 217 218 221 220 219 227 231 228 225 224 225 226 230 232 226 226 231 233 233 232 232 235 235 238 242 244 248 250 247 247 257 265 263 255 253 257 260 260 256 256 255 252 261 268 266 267
198 201 196 191 190 186 186 193 200 204 206 211 221 228 228 232 234 230 228 228 229 229 231 233 233 230 227 227 225 218 217 220 220 219 218 220 221 217 220 226 225 221 218 218 221 221 220 222 226 228 225 227 230 226 228 234 231 227 227 229 233 232 230 233 235 239 243 242 243 247 244 244 255 264 262 255 253 254 255 252 249 256 261 253 253 259 261 261
199 201 195 188 187 185 187 197 201 204 211 214 222 230 229 229 233 235 230 225 224 226 227 229 232 234 233 229 226 224 225 225 223 220 220 221 218 214 220 226 225 224 220 219 220 221 221 221 225 229 227 229 234 229 228 234 234 231 229 229 231 233 233 235 236 240 241 239 242 246 243 244 255 265 261 255 258 265 265 256 249 258 267 263 262 265 266 266
197 201 197 187 187 189 193 202 205 209 214 217 224 229 228 228 229 232 231 224 220 223 225 227 230 232 229 229 231 230 229 227 226 225 223 220 217 220 224 225 227 228 223 221 222 218 218 221 225 230 228 229 236 240 237 236 233 232 231 229 229 232 235 237 234 234 239 241 243 246 246 246 249 255 254 248 249 263 273 270 262 267 271 269 271 272 270 267
187 192 195 190 190 194 199 204 207 212 217 221 228 228 228 232 228 225 229 225 219 222 227 228 229 229 228 229 231 228 225 225 227 228 223 218 224 233 231 225 227 227 221 220 223 220 218 220 222 227 226 224 229 239 238 232 228 228 229 230 232 234 238 239 233 230 237 243 243 242 244 240 237 247 255 249 245 249 260 271 272 275 279 272 265 266 269 271
186 185 189 190 192 196 201 203 207 217 221 223 229 226 223 228 229 229 233 230 224 225 228 229 229 229 229 230 230 228 226 226 226 227 224 221 227 234 233 229 228 225 222 225 228 225 221 219 220 224 225 222 225 232 229 224 229 233 233 237 238 238 239 234 229 231 237 244 244 237 233 230 233 248 261 258 260 261 264 269 272 279 285 276 264 261 265 272
191 189 188 189 194 201 206 210 215 224 223 217 220 223 222 224 225 227 232 232 230 230 230 230 231 232 231 231 231 230 228 228 228 228 227 224 226 230 232 238 235 226 222 228 228 222 219 222 225 227 226 224 229 238 231 225 235 241 240 242 244 247 248 232 225 230 235 243 248 233 221 222 230 240 251 260 269 269 269 275 278 281 283 274 266 265 267 273
189 190 189 188 194 203 210 214 216 220 219 212 214 220 225 227 222 220 226 230 231 232 233 233 231 231 232 231 233 233 232 231 231 230 227 222 224 228 227 238 240 226 217 223 227 221 219 224 228 229 230 226 230 242 238 228 237 244 239 240 246 257 258 242 232 234 231 238 244 226 212 213 223 230 239 253 264 264 267 277 279 279 278 273 270 269 274 280
186 190 193 195 198 202 209 214 212 214 220 220 220 222 225 229 225 221 225 229 228 227 229 231 229 229 231 230 230 232 232 233 231 229 227 222 223 229 224 228 242 227 214 219 224 216 215 222 226 230 237 237 237 248 247 231 228 235 232 234 244 256 256 244 240 243 242 242 236 220 209 210 220 231 239 250 259 257 260 270 272 275 281 280 277 277 281 288
188 190 191 195 199 199 203 205 205 210 218 221 223 223 224 227 226 226 226 225 226 224 221 225 227 226 229 231 232 231 229 229 228 226 227 225 222 225 222 224 244 239 220 221 225 220 218 225 228 230 238 241 237 243 249 233 219 221 228 230 235 243 244 240 241 244 245 243 230 217 214 218 227 236 241 249 255 253 257 268 272 277 283 283 282 284 288 294
189 190 189 196 201 199 200 202 204 209 212 215 217 215 220 224 222 225 225 220 223 224 219 224 228 226 228 233 232 229 225 224 225 224 228 228 222 220 219 221 233 240 226 220 224 226 225 226 228 230 235 237 230 232 242 234 216 217 233 236 231 233 236 238 246 245 241 240 230 220 223 231 237 242 243 248 255 259 266 274 278 281 281 280 282 284 288 294
197 203 204 206 206 201 202 204 206 208 209 212 214 210 215 221 216 219 226 221 221 223 223 230 232 228 233 237 230 224 219 221 225 226 227 227 223 222 222 221 226 235 232 222 222 226 227 226 228 232 236 236 232 234 239 235 225 225 241 249 243 242 242 241 244 247 245 245 238 230 231 238 240 241 243 247 254 264 276 279 279 283 281 279 281 280 281 287
202 211 209 205 202 201 203 204 205 209 208 208 208 205 210 218 213 210 221 226 221 217 222 232 234 231 236 236 229 224 223 227 230 229 228 226 224 225 227 226 228 234 236 229 227 229 228 228 228 230 234 236 235 237 238 236 237 240 247 252 249 248 247 243 243 250 252 247 238 233 236 241 241 243 246 247 252 260 269 273 275 278 277 276 276 274 275 283